CAPE
632 734 952 586 242 177 47 5 4 2 0 0 0 0 0 0 5 2 1 0 0 0 154 86 4 0 0 0 0 0 0 0 0
789 691 629 716 685 512 374 271 166 88 104 56 2 0 0 0 1 1 4 1 0 17 191 174 80 3 3 1 0 0 0 0 0
185 81 164 559 764 715 650 585 521 450 407 332 363 317 35 0 0 0 0 0 0 58 129 281 292 194 105 35 1 0 0 0 0
0 0 0 0 0 47 273 578 623 614 628 668 609 465 240 124 51 0 0 0 0 5 266 299 434 403 247 173 25 5 1 2 13
0 0 0 0 0 0 0 0 33 279 371 649 550 295 237 275 412 303 103 0 0 0 76 325 540 559 443 282 216 48 7 5 11
0 0 0 0 0 0 0 0 0 0 0 234 248 228 557 515 420 375 300 24 88 70 0 41 278 642 669 522 480 236 113 57 34
0 0 0 0 0 0 0 0 0 0 0 0 1 137 429 534 477 378 372 284 630 728 578 224 123 354 959 918 560 402 366 194 93
0 0 0 0 0 0 0 0 0 0 0 0 0 0 0 10 84 245 126 128 172 350 576 592 596 508 621 1018 822 735 714 682 592
0 0 0 0 0 0 0 0 0 0 0 0 0 0 0 0 0 0 34 3 22 111 168 384 617 741 694 497 1140 981 970 827 687
0 0 0 0 0 0 0 0 0 0 0 0 0 0 0 0 0 0 0 0 0 0 0 0 37 403 627 899 1111 1284 1124 1170 922
0 0 0 0 0 0 0 0 0 0 0 0 0 0 0 0 0 0 0 0 0 0 0 0 0 0 0 142 633 957 1110 1220 1280
0 0 0 0 0 0 0 0 0 0 0 0 0 0 0 0 0 0 0 0 0 0 0 0 0 0 0 0 6 322 740 1073 1245
0 0 0 0 0 0 0 0 0 0 0 0 0 0 0 0 0 0 0 0 0 0 0 0 0 0 0 0 0 0 319 843 1020
0 0 0 0 2 4 2 1 0 0 0 0 0 0 0 0 0 0 0 0 0 0 0 0 0 0 0 0 11 1 4 270 898
0 0 0 0 3 6 5 3 0 0 0 0 0 0 0 0 0 0 0 0 0 0 0 6 14 15 23 31 38 78 130 90 577
0 2 2 2 3 4 3 4 3 0 0 0 0 0 0 0 0 0 0 0 0 0 0 0 16 7 7 63 122 165 105 123 213
1 3 5 6 8 10 13 10 7 1 1 2 0 0 0 0 0 0 0 0 1 0 0 0 3 18 0 13 45 90 107 125 300
7 9 11 10 11 13 14 13 10 3 2 3 5 1 0 0 0 0 0 1 2 0 0 0 0 1 11 31 68 52 24 82 472
4 9 13 14 15 17 15 9 14 10 5 6 5 8 6 4 0 0 1 1 4 5 1 0 11 16 42 53 54 1 20 146 633
5 7 10 12 14 12 15 19 9 12 9 10 7 4 2 4 9 5 1 0 7 2 0 0 13 23 67 72 10 2 347 543 658
CIN
-3 0 0 -2 -27 -48 -161 -273 -270 -166 0 0 0 0 0 0 0 0 0 0 0 0 -74 -91 -3 0 0 0 0 0 0 0 0
0 0 0 0 0 -1 -1 -1 -8 -53 -34 -84 -25 0 0 0 0 0 0 0 0 -108 -40 -46 -109 -12 0 0 0 0 0 0 0
-3 -21 -47 0 0 0 -1 0 0 0 0 -2 -7 -13 -70 0 0 0 0 0 0 -88 -58 -15 -13 -36 -78 -144 0 0 0 0 0
0 0 0 0 -4 -75 -23 0 0 0 0 -1 -1 -4 -35 -103 -133 0 0 0 0 -262 -10 -2 0 0 -14 -36 -135 0 -1 0 0
0 0 0 0 0 0 0 0 -135 -17 -8 -2 -13 -41 -63 -32 0 -6 -134 0 0 0 -141 -2 0 0 0 0 -14 -94 0 0 0
0 0 0 0 0 0 0 0 0 0 0 -67 -69 -97 0 0 -2 -5 -19 -232 -115 -148 -10 -173 -5 0 0 -1 0 -9 -57 -105 -85
0 0 0 0 0 0 0 0 0 0 0 0 -28 -191 -18 -1 -4 -8 -13 -17 0 0 0 -34 -67 -5 0 0 -1 0 0 -10 -61
0 0 0 0 0 0 0 0 0 0 0 0 0 0 0 0 -231 -68 -113 -92 -45 -1 0 0 0 0 0 0 0 0 0 0 0
0 0 0 0 0 0 0 0 0 0 0 0 0 0 0 0 0 0 -217 -10 -220 -88 -22 0 0 0 0 0 0 0 0 0 0
0 0 0 0 0 0 0 0 0 0 0 0 0 0 0 0 0 0 0 0 0 0 0 0 -7 -2 0 0 0 0 0 0 0
0 0 0 0 0 0 0 0 0 0 0 0 0 0 0 0 0 0 0 0 0 0 0 0 0 0 0 -89 0 0 0 0 0
0 0 0 0 0 0 0 0 0 0 0 0 0 0 0 0 0 0 0 0 0 0 0 0 0 0 0 0 -310 -24 0 0 0
0 0 0 0 0 0 0 0 0 0 0 0 0 0 0 0 0 0 0 0 0 0 0 0 0 0 0 0 0 0 -25 0 0
0 0 0 0 0 0 0 0 0 0 0 0 0 0 0 0 0 0 0 0 0 0 0 0 0 0 0 0 -153 -44 -159 -18 0
0 0 0 0 0 0 0 0 0 0 0 0 0 0 0 0 0 0 0 0 0 0 0 0 0 -22 -24 -15 -175 -241 -76 -28 0
0 0 0 0 0 0 0 0 0 0 0 0 0 0 0 0 0 0 0 0 0 0 0 0 0 0 -13 -5 -311 -188 -148 -79 0
0 0 0 0 0 0 0 0 0 0 0 0 0 0 0 0 0 0 0 0 0 0 0 0 -1 0 0 -13 -32 -24 -19 -90 -7
0 0 0 0 0 0 0 0 0 0 0 0 0 0 0 0 0 0 0 0 0 0 0 0 0 -1 -4 -10 -10 -41 -100 -64 -2
0 0 0 0 0 0 0 0 0 0 0 0 0 0 0 0 0 0 0 0 0 0 0 0 -7 -5 0 -2 -11 -19 -93 -68 -14
0 0 0 0 0 0 0 0 0 0 0 0 0 0 0 0 0 0 0 0 0 0 0 0 -3 -3 0 0 -10 0 -33 -17 -12
Wind_Speed
7 9 4 2 2 3 4 4 5 5 5 5 5 5 5 6 7 6 3 7 2 5 6 8 5 7 8 7 5 3 2 1 2
8 8 8 6 5 6 7 7 8 8 8 8 7 7 5 9 8 7 7 7 6 9 8 10 10 9 9 9 8 7 6 5 4
10 10 9 9 9 8 8 9 10 10 10 10 10 8 7 8 9 8 8 5 8 10 12 12 12 12 11 11 10 9 9 9 9
10 9 10 9 9 9 8 8 10 12 12 12 11 10 9 10 8 8 7 6 9 12 12 14 13 14 13 14 13 13 12 11 11
7 7 10 10 10 9 9 8 8 8 9 12 12 9 9 12 11 8 7 3 12 14 15 15 16 15 16 15 16 15 15 14 12
7 5 9 9 9 9 9 9 9 10 12 4 7 7 7 8 6 5 7 8 14 16 17 17 17 16 17 17 17 17 16 16 15
6 5 7 7 8 7 7 7 9 9 7 6 6 6 7 6 7 6 9 10 17 19 18 18 18 18 16 15 19 19 19 18 17
5 4 5 6 5 5 7 6 5 7 7 7 8 8 9 7 7 8 8 11 14 16 16 19 20 19 18 17 18 21 20 19 19
5 5 6 5 5 7 6 5 7 8 9 9 10 10 9 7 7 9 8 8 13 15 16 16 16 19 20 19 19 19 20 20 20
6 6 6 6 6 6 7 7 7 8 9 9 10 10 11 11 8 8 5 6 13 15 16 16 17 17 20 21 19 19 20 22 22
7 7 6 6 6 6 7 7 8 8 8 9 10 11 11 11 12 9 10 7 10 14 16 17 17 18 18 18 19 21 21 22 22
8 6 6 6 6 7 6 7 6 6 6 8 8 8 9 9 11 10 9 10 8 10 13 15 16 18 18 19 20 19 20 22 23
7 6 6 6 6 5 5 5 6 6 7 7 7 7 7 8 8 7 7 7 8 6 11 11 14 16 19 20 21 22 20 19 23
7 6 6 6 5 5 5 5 5 6 7 8 8 6 6 5 3 6 6 7 7 6 6 8 12 14 15 17 19 22 22 21 20
6 5 5 5 4 4 4 6 6 7 7 9 7 4 3 0 4 5 5 5 7 7 8 7 6 7 12 16 18 19 22 23 21
6 5 5 4 4 5 6 6 7 6 8 7 5 2 2 2 3 4 5 6 6 7 7 5 6 7 8 13 16 19 19 23 24
5 6 5 5 5 5 5 5 6 5 6 6 5 3 3 3 1 4 5 8 6 6 6 7 8 7 7 9 15 17 20 22 23
5 5 5 5 5 4 5 5 6 6 5 6 4 4 4 8 1 5 6 9 7 6 5 7 8 9 9 10 11 14 22 21 19
4 5 6 6 5 5 5 4 5 5 5 3 2 3 5 3 6 6 6 8 6 6 5 6 7 9 8 9 11 22 18 17 15
5 5 6 6 5 6 6 6 5 4 4 4 4 3 3 4 2 7 9 10 6 6 5 6 6 7 9 9 11 23 19 15 17
Wind_Direction
25 22 16 236 258 256 261 262 260 262 267 274 282 278 273 274 266 279 250 268 4 282 242 234 212 196 189 186 182 171 183 256 334
14 15 10 350 296 277 270 269 266 261 258 263 268 272 273 274 277 270 266 270 309 273 256 220 225 223 214 209 206 204 212 199 233
21 15 5 349 327 303 279 274 271 271 267 262 258 255 255 266 270 270 268 267 276 281 262 252 237 226 228 222 220 220 225 229 216
17 10 7 360 1 354 351 333 284 273 272 269 258 242 238 268 271 274 266 212 255 273 273 262 257 236 228 226 225 225 225 237 230
21 344 16 350 350 349 352 346 336 333 306 286 255 253 249 255 272 258 260 274 267 267 268 266 263 251 237 229 228 230 228 234 237
329 19 345 344 346 342 344 340 335 323 276 305 319 284 253 258 260 279 279 243 265 267 265 265 263 266 251 236 229 231 233 232 237
312 299 320 316 339 306 333 328 310 275 302 290 239 264 259 257 257 259 284 275 273 268 262 263 265 264 262 252 238 232 231 233 235
329 319 327 329 347 322 321 311 310 314 304 297 293 291 287 270 262 251 263 271 282 288 286 274 268 262 260 256 245 238 237 232 230
332 324 324 317 325 317 315 312 312 304 299 296 293 289 288 282 282 280 208 260 285 287 291 287 275 269 259 256 253 246 242 240 237
324 317 313 313 316 310 311 308 308 300 295 291 288 286 283 282 277 277 273 271 281 285 288 292 293 289 274 265 260 248 241 240 241
315 311 312 307 312 314 311 309 301 298 296 295 290 286 282 280 282 280 282 251 270 284 286 288 290 290 291 289 277 270 257 246 240
315 313 308 314 316 307 307 305 298 296 302 294 295 290 290 288 282 284 287 290 255 253 283 284 286 287 286 286 285 283 269 258 246
310 307 306 317 304 308 309 315 312 307 305 305 302 294 291 296 296 291 289 290 288 271 247 282 286 284 281 278 277 277 275 268 260
318 317 316 312 306 306 316 319 315 312 315 310 306 303 303 305 300 310 292 297 287 294 293 263 282 284 288 289 285 279 277 275 266
320 318 322 319 307 304 321 322 324 316 322 315 308 319 333 217 327 325 316 313 304 300 302 305 302 276 282 289 288 288 282 278 275
317 319 319 321 313 328 322 324 324 334 343 313 338 308 25 218 332 352 338 326 318 312 299 308 303 304 309 291 299 289 290 286 276
313 316 315 318 316 319 327 333 332 336 358 340 304 347 166 2 286 340 346 343 324 304 302 309 312 312 312 318 306 300 293 286 273
314 310 304 308 305 313 320 333 337 333 336 356 335 326 357 336 296 331 330 337 331 337 324 317 322 325 322 313 318 334 304 287 276
304 305 303 309 310 308 322 321 328 316 322 323 349 327 317 335 319 333 324 343 333 339 333 337 336 329 323 324 339 327 306 288 278
302 303 306 304 309 312 307 309 318 304 296 309 338 336 315 287 294 307 330 332 336 346 348 343 341 343 337 347 351 339 354 324 310